| time (UTC) | temp F | wind direction | speed knots | gust knots | rain 1hr in | rain 24hr in | rain mn in | humidity % | barometer mb |
| 20260905220204 | 97 | 37 | 0.0 | 1.7 | 0.00 | 0.00 | 0.00 | 54 | 1010.5 |
| 20260905220004 | 97 | 34 | 0.0 | 1.7 | 0.00 | 0.00 | 0.00 | 53 | 1010.5 |
| 20260905215804 | 97 | 34 | 0.0 | 1.7 | 0.00 | 0.00 | 0.00 | 53 | 1010.5 |
| 20260905215604 | 97 | 33 | 0.0 | 1.7 | 0.00 | 0.00 | 0.00 | 53 | 1010.5 |
| 20260905215425 | 97 | 26 | 0.0 | 1.7 | 0.00 | 0.00 | 0.00 | 53 | 1010.6 |
| 20260905215204 | 96 | 309 | 0.0 | 0.9 | 0.00 | 0.00 | 0.00 | 53 | 1010.6 |
| 20260905215025 | 96 | 349 | 0.0 | 0.9 | 0.00 | 0.00 | 0.00 | 54 | 1010.6 |
| 20260905214825 | 96 | 296 | 0.0 | 0.9 | 0.00 | 0.00 | 0.00 | 54 | 1010.6 |
| 20260905214604 | 96 | 295 | 0.0 | 0.9 | 0.00 | 0.00 | 0.00 | 55 | 1010.6 |
| 20260905214404 | 96 | 292 | 0.0 | 0.9 | 0.00 | 0.00 | 0.00 | 55 | 1010.7 |
| 20260905214204 | 97 | 286 | 0.0 | 0.9 | 0.00 | 0.00 | 0.00 | 55 | 1010.7 |
| 20260905214004 | 97 | 285 | 0.0 | 0.9 | 0.00 | 0.00 | 0.00 | 55 | 1010.7 |
| 20260905213804 | 97 | 340 | 0.0 | 1.7 | 0.00 | 0.00 | 0.00 | 55 | 1010.7 |
| 20260905213604 | 97 | 324 | 0.0 | 1.7 | 0.00 | 0.00 | 0.00 | 55 | 1010.7 |
| 20260905213404 | 97 | 324 | 0.0 | 1.7 | 0.00 | 0.00 | 0.00 | 55 | 1010.8 |
| 20260905213204 | 97 | 8 | 0.0 | 1.7 | 0.00 | 0.00 | 0.00 | 55 | 1010.8 |
| 20260905213004 | 97 | 31 | 0.0 | 1.7 | 0.00 | 0.00 | 0.00 | 54 | 1010.9 |
| 20260905212804 | 97 | 36 | 0.0 | 1.7 | 0.00 | 0.00 | 0.00 | 54 | 1010.9 |
| 20260905212604 | 97 | 44 | 0.0 | 2.6 | 0.00 | 0.00 | 0.00 | 55 | 1010.9 |
| 20260905212404 | 97 | 45 | 0.0 | 2.6 | 0.00 | 0.00 | 0.00 | 55 | 1010.9 |
| 20260905212204 | 97 | 43 | 0.0 | 2.6 | 0.00 | 0.00 | 0.00 | 54 | 1010.8 |
| 20260905212004 | 97 | 50 | 0.0 | 2.6 | 0.00 | 0.00 | 0.00 | 55 | 1010.8 |
| 20260905211804 | 97 | 49 | 0.0 | 2.6 | 0.00 | 0.00 | 0.00 | 54 | 1010.8 |
| 20260905211604 | 97 | 52 | 0.0 | 0.9 | 0.00 | 0.00 | 0.00 | 54 | 1010.9 |
| 20260905211404 | 97 | 47 | 0.0 | 0.9 | 0.00 | 0.00 | 0.00 | 54 | 1010.8 |
| 20260905211204 | 97 | 44 | 0.0 | 0.9 | 0.00 | 0.00 | 0.00 | 54 | 1010.8 |
| 20260905211004 | 97 | 39 | 0.0 | 0.9 | 0.00 | 0.00 | 0.00 | 54 | 1010.9 |
| 20260905210803 | 97 | 39 | 0.0 | 0.9 | 0.00 | 0.00 | 0.00 | 54 | 1010.9 |
| 20260905210604 | 97 | 37 | 0.9 | 1.7 | 0.00 | 0.00 | 0.00 | 54 | 1010.9 |
| 20260905210404 | 97 | 41 | 0.9 | 1.7 | 0.00 | 0.00 | 0.00 | 54 | 1010.9 |
| 20260905210204 | 97 | 44 | 0.9 | 1.7 | 0.00 | 0.00 | 0.00 | 53 | 1010.9 |
| 20260905210004 | 97 | 43 | 0.9 | 1.7 | 0.00 | 0.00 | 0.00 | 52 | 1010.9 |
| 20260905205804 | 97 | 42 | 0.9 | 2.6 | 0.00 | 0.00 | 0.00 | 53 | 1011.0 |
| 20260905205604 | 97 | 44 | 0.9 | 2.6 | 0.00 | 0.00 | 0.00 | 53 | 1011.0 |
| 20260905205425 | 97 | 46 | 0.0 | 2.6 | 0.00 | 0.00 | 0.00 | 53 | 1011.0 |
| 20260905205204 | 97 | 44 | 0.0 | 2.6 | 0.00 | 0.00 | 0.00 | 53 | 1011.0 |
| 20260905205004 | 97 | 46 | 0.0 | 2.6 | 0.00 | 0.00 | 0.00 | 53 | 1011.1 |
| 20260905204804 | 97 | 50 | 0.0 | 1.7 | 0.00 | 0.00 | 0.00 | 53 | 1011.1 |
| 20260905204604 | 97 | 51 | 0.0 | 1.7 | 0.00 | 0.00 | 0.00 | 54 | 1011.2 |
| 20260905204424 | 97 | 42 | 0.0 | 1.7 | 0.00 | 0.00 | 0.00 | 53 | 1011.2 |
| 20260905204204 | 97 | 300 | 0.0 | 1.7 | 0.00 | 0.00 | 0.00 | 52 | 1011.2 |
| 20260905204003 | 97 | 300 | 0.0 | 1.7 | 0.00 | 0.00 | 0.00 | 52 | 1011.2 |
| 20260905203825 | 97 | 301 | 0.0 | 1.7 | 0.00 | 0.00 | 0.00 | 52 | 1011.3 |
| 20260905203603 | 98 | 301 | 0.0 | 1.7 | 0.00 | 0.00 | 0.00 | 52 | 1011.3 |
| 20260905203404 | 98 | 282 | 0.0 | 1.7 | 0.00 | 0.00 | 0.00 | 52 | 1011.3 |
| 20260905203204 | 98 | 0 | 0.0 | 0.0 | 0.00 | 0.00 | 0.00 | 52 | 1011.3 |